This is the latest recevied weather packets stored in our database for station/object KN6ETB-1. If no packets are shown the sender has not sent any weather packets the latest 10 day(s).
| Time | Temp. | Humidity | Pressure | Rain* | Wind** | Luminosity | Snow |
|---|---|---|---|---|---|---|---|
| 1778085779 | 17.78° C | 76% | 1017.8 hPa | 0 mm | - | 340 W/m² | - |
| 1778085475 | 17.78° C | 76% | 1017.8 hPa | 0 mm | - | 341 W/m² | - |
| 1778085170 | 17.22° C | 78% | 1018.1 hPa | 0 mm | - | 333 W/m² | - |
| 1778084867 | 17.22° C | 77% | 1017.8 hPa | 0 mm | - | 288 W/m² | - |
| 1778084564 | 17.22° C | 78% | 1017.8 hPa | 0 mm | - | 265 W/m² | - |
| 1778084262 | 16.67° C | 80% | 1017.9 hPa | 0 mm | - | 255 W/m² | - |
| 1778083959 | 16.67° C | 79% | 1017.8 hPa | 0 mm | - | 223 W/m² | - |
| 1778083656 | 16.11° C | 81% | 1017.8 hPa | 0 mm | - | 199 W/m² | - |
| 1778083353 | 16.11° C | 81% | 1018 hPa | 0 mm | - | 173 W/m² | - |
| 1778083051 | 16.11° C | 81% | 1017.9 hPa | 0 mm | - | 157 W/m² | - |
| 1778082748 | 16.11° C | 81% | 1017.8 hPa | 0 mm | - | 158 W/m² | - |
| 1778081615 | 15.56° C | 83% | 1017.6 hPa | 0 mm | - | 132 W/m² | - |
| 1778081312 | 15.56° C | 83% | 1017.8 hPa | 0 mm | - | 124 W/m² | - |
| 1778081010 | 15.56° C | 83% | 1017.7 hPa | 0 mm | - | 117 W/m² | - |
| 1778080708 | 15.56° C | 83% | 1017.8 hPa | 0 mm | - | 116 W/m² | - |
| 1778080404 | 15.56° C | 83% | 1017.7 hPa | 0 mm | - | 111 W/m² | - |
| 1778080102 | 15° C | 83% | 1017.7 hPa | 0 mm | - | 108 W/m² | - |
| 1778079798 | 15° C | 84% | 1017.7 hPa | 0 mm | - | 106 W/m² | - |
| 1778079495 | 15° C | 84% | 1017.7 hPa | 0 mm | - | 98 W/m² | - |
| 1778079191 | 15° C | 84% | 1017.6 hPa | 0 mm | - | 90 W/m² | - |
| 1778078889 | 15° C | 84% | 1017.8 hPa | 0 mm | - | 86 W/m² | - |
| 1778078585 | 15° C | 85% | 1017.7 hPa | 0 mm | - | 84 W/m² | - |
| 1778078284 | 14.44° C | 85% | 1017.5 hPa | 0 mm | - | 83 W/m² | - |
| 1778077981 | 14.44° C | 85% | 1017.6 hPa | 0 mm | - | 74 W/m² | - |
| 1778077679 | 14.44° C | 86% | 1017.5 hPa | 0 mm | - | 68 W/m² | - |
* Rain latest hour (hover to see other rain measurements)
** Current wind speed in m/s (hover to see current wind gust speed)